GW2027 Weather Reports


time (UTC)temp
C
wind
direction
speed
KPH
gust
KPH
rain 1hr
cm
rain 24hr
cm
rain mn
cm
humidity
%
barometer
mb
20260507085610 12 267 1.6 1.6 0.00 0.20 0.20 63 1012.3
20260507085107 12 220 0.0 0.0 0.00 0.20 0.20 63 1012.0
20260507084603 12 232 0.0 0.0 0.00 0.20 0.20 62 1012.2
20260507084100 12 220 0.0 0.0 0.00 0.20 0.20 62 1012.3
20260507083556 12 204 0.0 0.0 0.00 0.20 0.20 62 1012.1
20260507083054 12 195 0.0 0.0 0.00 0.20 0.20 62 1012.2
20260507082549 12 222 0.0 0.0 0.00 0.20 0.20 61 1011.9
20260507082046 12 243 0.0 1.6 0.00 0.20 0.20 61 1011.7
20260507081542 12 225 0.0 0.0 0.00 0.20 0.20 61 1011.6
20260507081040 12 233 1.6 1.6 0.00 0.20 0.20 61 1011.9
20260507080535 12 297 6.4 6.4 0.00 0.20 0.20 61 1011.7
20260507080032 12 240 0.0 1.6 0.00 0.20 0.20 62 1011.8
20260507075527 12 281 0.0 0.0 0.00 0.20 0.20 63 1011.6
20260507075024 12 236 0.0 0.0 0.00 0.20 0.20 64 1011.5
20260507074521 12 233 0.0 0.0 0.00 0.20 0.20 63 1011.3
20260507074020 12 228 3.2 3.2 0.00 0.20 0.20 63 1011.5
20260507073515 12 241 1.6 4.8 0.00 0.20 0.20 63 1011.5
20260507073012 12 234 1.6 1.6 0.00 0.20 0.20 63 1011.5
20260507072509 12 223 0.0 1.6 0.00 0.20 0.20 64 1011.4
20260507072006 12 232 1.6 3.2 0.00 0.20 0.20 64 1011.2
20260507071504 12 254 1.6 3.2 0.00 0.20 0.20 66 1011.1
20260507071000 12 311 0.0 1.6 0.00 0.20 0.20 67 1011.1
20260507070457 12 314 3.2 4.8 0.00 0.20 0.20 69 1011.2
20260507065954 12 245 3.2 4.8 0.00 0.20 0.20 70 1011.2
20260507065451 12 239 3.2 3.2 0.00 0.20 0.20 70 1011.5
20260507064948 12 274 1.6 3.2 0.00 0.20 0.20 71 1011.6
20260507064446 12 258 1.6 3.2 0.00 0.20 0.20 71 1011.5
20260507063943 12 235 0.0 0.0 0.00 0.20 0.20 71 1011.2
20260507063440 12 287 0.0 1.6 0.00 0.20 0.20 71 1010.9
20260507062937 13 355 0.0 3.2 0.00 0.20 0.20 71 1011.0
20260507062434 13 262 0.0 1.6 0.13 0.20 0.20 71 1011.1
20260507061932 13 30 0.0 3.2 0.13 0.20 0.20 70 1011.2
20260507061430 13 257 0.0 1.6 0.00 0.18 0.18 70 1011.2
20260507060928 13 236 0.0 0.0 0.00 0.18 0.18 70 1011.5
20260507060424 13 228 1.6 3.2 0.00 0.18 0.18 69 1011.4
20260507055921 13 1 0.0 0.0 0.00 0.18 0.18 69 1011.3
20260507055417 13 225 0.0 0.0 0.00 0.18 0.18 68 1011.6
20260507054914 13 223 0.0 0.0 0.18 0.18 0.18 68 1011.3
20260507054409 13 213 0.0 0.0 0.18 0.18 0.18 68 1011.2
20260507053907 13 234 1.6 1.6 0.30 0.15 0.15 67 1011.7
20260507053404 14 224 3.2 3.2 0.48 0.15 0.15 66 1011.4
20260507052903 14 226 0.0 1.6 0.30 0.10 0.10 66 1011.4
20260507052400 15 240 1.6 1.6 0.30 0.08 0.08 66 1011.5
20260507051857 15 296 8.0 9.7 0.30 0.05 0.05 66 1011.8
20260507051355 15 352 6.4 11.3 0.13 0.03 0.03 65 1011.5
20260507050851 16 267 4.8 4.8 0.00 0.00 0.00 62 1011.9
20260507050348 16 251 4.8 6.4 0.00 0.00 0.00 60 1011.9
20260507045845 16 256 3.2 3.2 0.00 0.00 0.00 60 1011.2
20260507045341 16 266 3.2 3.2 0.00 0.00 0.00 59 1011.2
20260507044838 16 228 1.6 1.6 0.00 0.00 0.00 58 1011.2
20260507044335 16 244 3.2 3.2 0.00 0.00 0.00 58 1011.3
20260507043831 16 292 3.2 4.8 0.00 0.00 0.00 58 1011.3
20260507043328 17 250 4.8 4.8 0.00 0.00 0.00 59 1011.0
20260507042824 17 16 11.3 17.7 0.00 0.00 0.00 59 1011.3
20260507042319 17 293 6.4 6.4 0.00 0.00 0.00 59 1011.2
20260507041817 17 231 3.2 3.2 0.00 0.00 0.00 59 1010.8
20260507041313 17 232 1.6 1.6 0.00 0.00 0.00 60 1010.7
20260507040811 17 215 1.6 1.6 0.00 0.00 0.00 60 1010.6
20260507040307 17 253 3.2 3.2 0.00 0.00 0.00 61 1010.4
20260507035802 17 242 0.0 0.0 0.00 0.51 0.51 61 1010.5
20260507035258 17 243 1.6 1.6 0.00 0.51 0.51 60 1010.5
20260507034756 17 249 0.0 0.0 0.00 0.51 0.51 60 1010.7
20260507034252 17 244 1.6 3.2 0.00 0.51 0.51 60 1010.9
20260507033751 17 236 3.2 4.8 0.00 0.51 0.51 60 1010.9
20260507033248 17 265 3.2 3.2 0.00 0.51 0.51 59 1010.9
20260507032745 17 269 3.2 3.2 0.00 0.51 0.51 59 1010.7
20260507032241 18 254 1.6 3.2 0.00 0.51 0.51 59 1010.5
20260507031738 18 243 1.6 1.6 0.00 0.51 0.51 58 1010.6
20260507031235 18 265 6.4 9.7 0.00 0.51 0.51 58 1010.5
20260507030731 18 253 3.2 4.8 0.00 0.51 0.51 57 1010.7
20260507030229 18 246 1.6 1.6 0.00 0.51 0.51 57 1010.7
20260507025726 18 279 1.6 1.6 0.00 0.51 0.51 57 1010.6
20260507025223 18 265 1.6 3.2 0.00 0.51 0.51 57 1010.5
20260507024721 18 238 3.2 3.2 0.00 0.51 0.51 56 1010.3
20260507024218 18 267 6.4 9.7 0.00 0.51 0.51 57 1010.4
20260507023713 18 300 4.8 4.8 0.00 0.51 0.51 59 1009.9
20260507023211 19 262 3.2 4.8 0.00 0.51 0.51 60 1010.0
20260507022708 19 254 3.2 4.8 0.00 0.51 0.51 60 1010.1
20260507022204 20 284 3.2 4.8 0.00 0.51 0.51 62 1009.8
20260507021700 20 250 4.8 6.4 0.00 0.51 0.51 62 1009.8
20260507021155 20 249 3.2 4.8 0.00 0.51 0.51 62 1010.0
20260507020655 20 248 1.6 3.2 0.00 0.51 0.51 63 1010.0
20260507020150 20 242 0.0 1.6 0.00 0.51 0.51 63 1009.7
20260507015648 20 242 0.0 1.6 0.00 0.51 0.51 63 1009.7
20260507015145 20 242 0.0 0.0 0.00 0.51 0.51 63 1009.7
20260507014642 20 244 0.0 0.0 0.00 0.51 0.51 63 1009.9
20260507014138 20 243 1.6 1.6 0.00 0.51 0.51 63 1009.9
20260507013635 20 241 1.6 1.6 0.00 0.51 0.51 63 1009.9
20260507013132 20 241 1.6 1.6 0.00 0.51 0.51 63 1009.9
20260507012629 20 241 0.0 0.0 0.00 0.51 0.51 63 1010.1
20260507012124 20 241 1.6 1.6 0.00 0.51 0.51 62 1010.2
20260507011623 20 241 0.0 0.0 0.00 0.51 0.51 62 1010.0
20260507011119 20 243 1.6 1.6 0.00 0.51 0.51 62 1010.0
20260507010614 20 243 0.0 0.0 0.00 0.51 0.51 62 1009.9
20260507010110 20 243 1.6 3.2 0.00 0.51 0.51 62 1010.0
20260507005608 20 240 1.6 1.6 0.00 0.51 0.51 62 1009.8
20260507005103 20 231 1.6 1.6 0.00 0.51 0.51 62 1009.8
20260507004601 20 220 0.0 0.0 0.00 0.51 0.51 62 1009.9
20260507004058 20 219 0.0 0.0 0.00 0.51 0.51 62 1009.6
20260507003554 20 215 0.0 0.0 0.00 0.51 0.51 62 1009.3
20260507003049 20 229 1.6 3.2 0.00 0.51 0.51 62 1009.8
20260507002546 20 210 0.0 0.0 0.00 0.51 0.51 62 1009.7
20260507002042 20 205 0.0 0.0 0.00 0.51 0.51 62 1009.4
20260507001539 20 186 0.0 1.6 0.00 0.51 0.51 62 1009.3
20260507001036 20 215 1.6 1.6 0.00 0.51 0.51 62 1009.6
20260507000532 20 188 1.6 1.6 0.00 0.51 0.51 62 1009.6
20260507000028 20 181 0.0 0.0 0.00 0.51 0.51 62 1009.5
20260506235526 20 184 0.0 1.6 0.00 0.51 0.51 61 1009.3
20260506235021 20 222 0.0 0.0 0.00 0.51 0.51 61 1009.6
20260506234519 20 222 3.2 3.2 0.00 0.51 0.51 61 1009.2
20260506234016 20 222 0.0 1.6 0.00 0.51 0.51 61 1009.2
20260506233512 20 244 0.0 0.0 0.00 0.51 0.51 61 1009.3
20260506233009 20 251 4.8 6.4 0.00 0.51 0.51 61 1009.3
20260506232505 20 251 4.8 4.8 0.00 0.51 0.51 60 1008.9
20260506232001 20 233 1.6 3.2 0.00 0.51 0.51 60 1009.0
20260506231458 20 228 1.6 1.6 0.00 0.51 0.51 60 1009.1
20260506230956 20 261 4.8 6.4 0.00 0.51 0.51 60 1009.3
20260506230452 21 244 1.6 1.6 0.00 0.51 0.51 60 1009.1
20260506225949 21 241 4.8 6.4 0.00 0.51 0.51 60 1009.0
20260506225446 21 235 3.2 4.8 0.00 0.51 0.51 59 1008.8
20260506224943 21 222 1.6 1.6 0.00 0.51 0.51 60 1008.8
20260506224440 21 250 3.2 6.4 0.00 0.51 0.51 59 1008.8
20260506223936 21 227 0.0 1.6 0.00 0.51 0.51 60 1008.6
20260506223432 21 227 0.0 1.6 0.00 0.51 0.51 59 1008.8
20260506222930 21 274 4.8 6.4 0.00 0.51 0.51 59 1008.9
20260506222426 21 214 1.6 1.6 0.00 0.51 0.51 59 1008.9
20260506221923 21 218 1.6 3.2 0.00 0.51 0.51 59 1009.0
20260506221420 21 278 9.7 11.3 0.00 0.51 0.51 59 1008.9
20260506220918 21 214 1.6 1.6 0.00 0.51 0.51 59 1009.0
20260506220413 21 208 1.6 3.2 0.00 0.51 0.51 59 1008.9
20260506215909 21 212 0.0 1.6 0.00 0.51 0.51 58 1008.9
20260506215406 21 244 1.6 4.8 0.00 0.51 0.51 58 1009.2
20260506214856 21 256 3.2 4.8 0.00 0.51 0.51 58 1008.8
20260506214354 21 212 1.6 1.6 0.00 0.51 0.51 58 1008.8
20260506213851 21 244 4.8 6.4 0.00 0.51 0.51 57 1008.7
20260506213348 21 246 9.7 12.9 0.00 0.51 0.51 57 1008.8
20260506212845 21 230 3.2 4.8 0.00 0.51 0.51 57 1008.6
20260506212341 21 217 1.6 1.6 0.00 0.51 0.51 57 1008.6
20260506211836 22 220 3.2 4.8 0.00 0.51 0.51 57 1008.4
20260506211332 22 192 1.6 3.2 0.00 0.51 0.51 56 1008.8
20260506210830 21 229 1.6 1.6 0.00 0.51 0.51 57 1008.6
20260506210327 21 244 9.7 11.3 0.00 0.51 0.51 57 1008.6
20260506205824 21 237 3.2 4.8 0.00 0.51 0.51 57 1008.4
20260506205320 21 232 1.6 1.6 0.00 0.51 0.51 58 1008.4
20260506204816 21 244 11.3 12.9 0.00 0.51 0.51 57 1008.4
20260506204314 21 283 9.7 12.9 0.00 0.51 0.51 58 1008.5
20260506203812 21 258 8.0 9.7 0.00 0.51 0.51 57 1008.7
20260506203309 21 248 6.4 6.4 0.00 0.51 0.51 57 1008.6
20260506202806 21 209 4.8 6.4 0.00 0.51 0.51 57 1008.5
20260506202305 21 256 9.7 11.3 0.00 0.51 0.51 57 1008.3
20260506201758 22 247 9.7 12.9 0.00 0.51 0.51 56 1008.5
20260506201256 21 248 6.4 9.7 0.00 0.51 0.51 57 1008.3
20260506200754 21 220 6.4 9.7 0.00 0.51 0.51 56 1008.5
20260506200249 22 265 12.9 17.7 0.00 0.51 0.51 56 1008.4
20260506195745 22 244 4.8 6.4 0.00 0.51 0.51 56 1008.3
20260506195242 22 208 3.2 4.8 0.00 0.51 0.51 56 1008.4
20260506194739 22 253 4.8 9.7 0.00 0.51 0.51 56 1008.4
20260506194235 22 213 3.2 4.8 0.00 0.51 0.51 56 1008.6
20260506193734 21 249 4.8 6.4 0.00 0.51 0.51 56 1008.4
20260506193230 21 246 3.2 4.8 0.00 0.51 0.51 56 1008.6
20260506192726 21 276 3.2 4.8 0.00 0.51 0.51 57 1008.5
20260506192223 21 242 4.8 4.8 0.00 0.51 0.51 56 1008.6
20260506191720 21 277 6.4 11.3 0.00 0.51 0.51 56 1008.6
20260506191216 21 211 1.6 1.6 0.00 0.51 0.51 57 1008.7
20260506190714 21 252 9.7 11.3 0.00 0.51 0.51 57 1008.8
20260506190210 20 253 8.0 11.3 0.00 0.51 0.51 57 1008.8
20260506185707 20 249 11.3 14.5 0.00 0.51 0.51 57 1008.9
20260506185203 20 242 3.2 3.2 0.00 0.51 0.51 58 1008.9
20260506184701 20 229 4.8 6.4 0.00 0.51 0.51 58 1009.2
20260506184158 20 268 16.1 17.7 0.00 0.51 0.51 58 1009.2
20260506183655 20 245 8.0 12.9 0.00 0.51 0.51 58 1008.9
20260506183151 20 245 8.0 9.7 0.00 0.51 0.51 58 1009.1
20260506182649 20 173 3.2 4.8 0.00 0.51 0.51 58 1009.2
20260506182145 20 245 6.4 9.7 0.00 0.51 0.51 59 1009.1
20260506181643 20 219 3.2 4.8 0.00 0.51 0.51 58 1009.3
20260506181140 20 241 1.6 3.2 0.00 0.51 0.51 59 1009.3
20260506180637 20 242 11.3 12.9 0.00 0.51 0.51 58 1009.1
20260506180133 20 263 8.0 11.3 0.00 0.51 0.51 59 1009.5
20260506175630 20 236 14.5 20.9 0.00 0.51 0.51 59 1009.4
20260506175126 20 264 6.4 9.7 0.00 0.51 0.51 59 1009.3
20260506174625 20 253 4.8 6.4 0.00 0.51 0.51 59 1009.6
20260506174121 19 262 4.8 6.4 0.00 0.51 0.51 59 1009.5
20260506173619 19 231 1.6 3.2 0.00 0.51 0.51 60 1009.0
20260506173115 18 151 3.2 4.8 0.00 0.51 0.51 60 1009.4
20260506172613 18 201 3.2 4.8 0.00 0.51 0.51 60 1009.5
20260506172109 18 228 11.3 14.5 0.00 0.51 0.51 61 1009.4
20260506171607 18 204 3.2 3.2 0.00 0.51 0.51 62 1009.6
20260506171104 17 109 3.2 6.4 0.00 0.51 0.51 64 1009.5
20260506170601 17 253 4.8 9.7 0.00 0.51 0.51 67 1009.5
20260506170059 17 221 3.2 3.2 0.00 0.51 0.51 71 1009.7
20260506165557 17 236 6.4 9.7 0.00 0.51 0.51 74 1009.5
20260506165053 17 224 3.2 3.2 0.00 0.51 0.51 76 1009.8
20260506164550 17 218 9.7 11.3 0.00 0.51 0.51 77 1009.9
20260506164048 17 239 8.0 11.3 0.00 0.51 0.51 77 1010.0
20260506163543 16 225 1.6 1.6 0.00 0.51 0.51 77 1010.0
20260506163039 16 218 4.8 4.8 0.00 0.51 0.51 77 1009.8
20260506162536 16 228 3.2 3.2 0.00 0.51 0.51 77 1009.7
20260506162033 17 199 1.6 3.2 0.00 0.51 0.51 77 1009.8
20260506161531 16 176 1.6 1.6 0.00 0.51 0.51 77 1009.7
20260506161027 16 261 6.4 12.9 0.00 0.51 0.51 77 1009.9
20260506160525 16 247 4.8 11.3 0.00 0.51 0.51 77 1010.0
20260506160022 16 206 0.0 1.6 0.00 0.51 0.51 76 1010.1
20260506155520 16 223 1.6 1.6 0.00 0.51 0.51 76 1010.2
20260506153651 16 199 0.0 0.0 0.00 0.51 0.51 75 1010.0
20260506153149 16 167 0.0 0.0 0.00 0.51 0.51 75 1010.0
20260506152645 16 209 0.0 0.0 0.00 0.51 0.51 74 1010.3
20260506152143 16 206 3.2 3.2 0.18 0.51 0.51 73 1010.4
20260506151642 16 254 1.6 1.6 0.18 0.51 0.51 73 1010.5
20260506151138 16 153 3.2 6.4 0.18 0.51 0.51 72 1010.6
20260506150635 16 195 1.6 3.2 0.00 0.48 0.48 72 1010.8
20260506150132 16 201 0.0 0.0 0.13 0.48 0.48 71 1010.8
20260506145629 16 202 0.0 0.0 0.43 0.48 0.48 70 1010.9
20260506145125 16 204 0.0 0.0 0.61 0.46 0.46 69 1010.8
20260506144623 16 197 0.0 1.6 0.61 0.41 0.41 68 1011.0
20260506144119 16 218 1.6 3.2 0.48 0.36 0.36 68 1011.0
20260506143617 16 206 1.6 3.2 0.18 0.28 0.28 67 1010.7
20260506143115 16 206 0.0 0.0 0.30 0.28 0.28 66 1010.8
20260506142613 16 182 0.0 0.0 0.13 0.25 0.25 66 1010.8
20260506142111 16 180 1.6 3.2 0.30 0.23 0.23 65 1010.7
20260506141608 16 204 0.0 0.0 0.48 0.23 0.23 65 1010.7
20260506141107 17 201 0.0 0.0 0.30 0.18 0.18 64 1010.8
20260506140604 17 198 0.0 0.0 0.30 0.15 0.15 64 1010.9
20260506140101 17 199 0.0 1.6 0.30 0.13 0.13 63 1010.9
20260506135558 17 200 0.0 0.0 0.30 0.13 0.13 63 1011.1
20260506135054 17 189 0.0 0.0 0.18 0.08 0.08 63 1011.2
20260506134551 17 196 1.6 3.2 0.30 0.08 0.08 63 1011.3
20260506134046 17 193 1.6 3.2 0.13 0.05 0.05 62 1011.5
20260506133544 17 154 1.6 1.6 0.00 0.03 0.03 62 1011.3
20260506133041 18 44 3.2 4.8 0.18 0.03 0.03 62 1011.0
20260506132538 18 212 3.2 6.4 0.18 0.03 0.03 61 1011.0
20260506132035 18 225 3.2 3.2 0.00 0.00 0.00 60 1010.8
20260506131532 18 212 0.0 0.0 0.00 0.00 0.00 60 1010.9
20260506131028 18 261 3.2 4.8 0.00 0.00 0.00 60 1010.8
20260506130525 18 229 3.2 3.2 0.00 0.00 0.00 60 1010.6
20260506130023 18 212 0.0 0.0 0.00 0.00 0.00 60 1010.5
20260506125521 18 168 1.6 3.2 0.00 0.00 0.00 59 1010.4
20260506125019 18 209 0.0 1.6 0.00 0.00 0.00 59 1010.3
20260506124516 18 199 0.0 0.0 0.00 0.00 0.00 58 1010.5
20260506124014 18 241 3.2 4.8 0.00 0.00 0.00 58 1010.7
20260506123512 18 216 1.6 3.2 0.00 0.00 0.00 58 1010.6
20260506123009 18 225 0.0 0.0 0.00 0.00 0.00 58 1010.8
20260506122506 18 223 0.0 1.6 0.00 0.00 0.00 58 1011.0
20260506122004 18 226 1.6 1.6 0.00 0.00 0.00 58 1011.1
20260506121501 18 232 4.8 6.4 0.00 0.00 0.00 57 1011.1
20260506120957 18 209 0.0 0.0 0.00 0.00 0.00 57 1011.0
20260506120455 18 219 1.6 3.2 0.00 0.00 0.00 56 1011.1
20260506115952 18 197 1.6 1.6 0.00 0.00 0.00 56 1011.1
20260506115450 18 219 3.2 4.8 0.00 0.00 0.00 55 1010.8
20260506114948 18 194 3.2 6.4 0.00 0.00 0.00 55 1010.8
20260506114446 19 205 3.2 6.4 0.00 0.00 0.00 55 1010.6
20260506113944 19 203 1.6 3.2 0.00 0.00 0.00 55 1010.7
20260506113442 19 211 0.0 1.6 0.00 0.00 0.00 55 1010.6
20260506112938 18 221 4.8 6.4 0.00 0.00 0.00 55 1010.6
20260506112436 18 193 1.6 1.6 0.00 0.00 0.00 56 1010.3
20260506111932 18 190 1.6 1.6 0.00 0.00 0.00 56 1010.5
20260506111431 18 228 3.2 4.8 0.00 0.00 0.00 56 1010.4
20260506110927 18 209 1.6 3.2 0.00 0.00 0.00 57 1010.2
20260506110425 18 227 3.2 4.8 0.00 0.00 0.00 57 1010.3
20260506105921 18 267 1.6 3.2 0.00 0.00 0.00 57 1010.1
20260506105418 18 204 1.6 1.6 0.00 0.00 0.00 57 1010.2
20260506104915 18 227 1.6 3.2 0.00 0.00 0.00 57 1010.4
20260506104413 18 197 1.6 1.6 0.00 0.00 0.00 56 1010.2
20260506103911 18 161 3.2 4.8 0.00 0.00 0.00 56 1010.2
20260506103408 18 221 6.4 6.4 0.00 0.00 0.00 56 1010.0
20260506102905 18 236 4.8 6.4 0.00 0.00 0.00 56 1010.0
20260506102403 18 207 1.6 1.6 0.00 0.00 0.00 57 1010.2
20260506101900 18 208 1.6 3.2 0.00 0.00 0.00 57 1010.1
20260506101356 18 210 1.6 1.6 0.00 0.00 0.00 56 1010.1
20260506100854 18 215 0.0 0.0 0.00 0.00 0.00 56 1009.9
20260506100352 18 227 4.8 6.4 0.00 0.00 0.00 56 1010.2
20260506095850 18 228 6.4 11.3 0.00 0.00 0.00 56 1010.0
20260506095348 18 213 4.8 6.4 0.00 0.00 0.00 56 1010.2
20260506094844 18 231 3.2 4.8 0.00 0.00 0.00 56 1010.2
20260506094343 18 210 0.0 1.6 0.00 0.00 0.00 56 1010.0
20260506093840 18 190 1.6 1.6 0.00 0.00 0.00 56 1010.2
20260506093337 18 182 0.0 0.0 0.00 0.00 0.00 56 1010.2
20260506092835 18 167 4.8 6.4 0.00 0.00 0.00 56 1010.0
20260506092333 18 229 1.6 3.2 0.00 0.00 0.00 56 1010.1
20260506091829 18 237 3.2 3.2 0.00 0.00 0.00 55 1010.2
20260506091327 18 222 1.6 3.2 0.00 0.00 0.00 55 1010.4
20260506090825 18 248 3.2 4.8 0.00 0.00 0.00 55 1010.1
20260506090322 19 177 1.6 1.6 0.00 0.00 0.00 54 1010.2